Regional Weather Roundup
Issued by NWS Sterling, VA

Home | Current Version | Previous Version | Text Only | Print | Product List | Glossary Off
Versions: 1 2 3 4 5 6 7 8 9 10 11 12 13 14 15 16 17 18 19 20 21 22 23 24 25 26 27

000
ASUS41 KLWX 240110
RWRLWX

REGIONAL WEATHER ROUNDUP
NATIONAL WEATHER SERVICE BALTIMORE MD/WASHINGTON DC
800 PM EST THU FEB 23 2017

Note: "FAIR" indicates few or no clouds below 12,000 feet
with no significant weather and/or obstructions to visibility.
 TC=TEMPERATURE CELSIUS

 * =Non NWS site. Station does not report precipitation (e.g. rain,
    snow, etc.), thunder, or fog.

DCZ001-MDZ009-015-VAZ040>042-051-053>054-240200-
WASHINGTON METRO

CITY           SKY/WX    TMP DP  RH WIND       PRES   REMARKS
WASHINGTON NAT PTCLDY    63  52  67 S12       29.87R
DULLES         PTCLDY    66  50  56 S6        29.86R
ANDREWS AFB    CLEAR     64  51  62 S9        29.87R
FT BELVOIR     CLEAR     66  51  59 CALM      29.87R
QUANTICO       CLEAR     55  49  80 S8        29.88R
COLLEGE PARK*  CLEAR     68  52  56 S3        29.86R
LEESBURG*      CLEAR     68  54  60 MISG      29.86S
MANASSAS*        N/A     58  50  75 CALM      29.87R
GAITHERSBURG*  CLEAR     66  48  52 S5        29.90R

$$

MDZ006>007-011-014-240200-
BALTIMORE METRO

CITY           SKY/WX    TMP DP  RH WIND       PRES   REMARKS
BWI AIRPORT    PTCLDY    61  51  70 SE5       29.86R
MD SCIENCE CTR   N/A     62  49  62 MISG      29.87R
MARTIN STATE   MOCLDY    61  54  77 S10       29.89R
ANNAPOLIS      CLEAR     56  50  80 S12       29.87S
FORT MEADE*    CLEAR     59  50  72 CALM      29.89R

$$

MDZ012-015-019>023-240200-
MARYLAND EASTERN SHORE

CITY           SKY/WX    TMP DP  RH WIND       PRES   REMARKS
OCEAN CITY     CLEAR     55  50  83 SW6       29.94R
SALISBURY      CLEAR     58  52  80 S7        29.92S
BAY BRIDGE AP* CLEAR     57  52  82 S14       29.88S
CAMBRIDGE*     CLEAR     59  52  77 S8        29.91R
EASTON*        CLEAR     63  52  67 S12       29.93S

$$

MDZ017>025-240200-
SOUTHERN MARYLAND

CITY           SKY/WX    TMP DP  RH WIND       PRES   REMARKS
PATUXENT RIVER CLEAR     56  52  86 S6        29.89S
ST INIGOES     CLEAR     59  52  77 SE7       29.89S
LEONARDTOWN*   CLEAR     61  52  72 CALM      29.91S

$$

MDZ003>005-240200-
NORTH CENTRAL MARYLAND

CITY           SKY/WX    TMP DP  RH WIND       PRES   REMARKS
FREDERICK*     NOT AVBL
HAGERSTOWN APT CLOUDY    70  51  51 S7        29.83R
WESTMINSTER*   CLEAR     66  54  63 S9        29.86R

$$

MDZ501>502-240200-
WESTERN MARYLAND

CITY           SKY/WX    TMP DP  RH WIND       PRES   REMARKS
OAKLAND*       CLOUDY    54  48  82 SW6       29.90S
CUMBERLAND*    CLOUDY    70  50  49 E5        29.86F

$$

VAZ025>031-240200-
SHENANDOAH VALLEY

CITY           SKY/WX    TMP DP  RH WIND       PRES   REMARKS
WINCHESTER*    CLEAR     63  50  63 S6        29.84S
FRONT ROYAL*   PTCLDY    68  52  56 S6        29.84R
LURAY*         CLEAR     64  54  68 SW3       29.86S
NEW MARKET*    CLEAR     63  49  61 W8        29.85S
STAUNTON*      CLEAR     60  50  69 S5        29.90S
WAYNESBORO*    CLEAR     61  50  68 S9        29.90S

$$

WVZ021-048>050-054>055-240200-
EASTERN WEST VIRGINIA PANHANDLE

CITY           SKY/WX    TMP DP  RH WIND       PRES   REMARKS
MARTINSBURG    CLEAR     66  49  54 S5        29.82S
PETERSBURG*    PTCLDY    63  50  61 CALM      29.85S

$$

VAZ036>039-050-240200-
CENTRAL FOOTHILLS

CITY           SKY/WX    TMP DP  RH WIND       PRES   REMARKS
CHARLOTTESVILL CLEAR     63  52  67 S7        29.88R
CULPEPER*      CLEAR     66  53  63 S5        29.88S
ORANGE*        CLEAR     59  50  72 CALM      29.90R
GORDONSVILLE*  CLEAR     58  52  80 CALM      29.88S
WARRENTON*     CLEAR     67  48  50 S6        29.86S

$$

VAZ055>057-240200-
NORTH AND CENTRAL PIEDMONT

CITY           SKY/WX    TMP DP  RH WIND       PRES   REMARKS
FREDERICKSBRG* CLEAR     67  53  60 S7        29.88R
STAFFORD*      CLEAR     65  52  61 S3        29.92S

$$

NCZ024-NYZ072-PAZ021-071-VAZ022-071-240200-
OTHER REGIONAL OBSERVATIONS

CITY           SKY/WX    TMP DP  RH WIND       PRES   REMARKS
NEW YORK CITY  MOCLDY    58  49  72 NE3       29.89S
PHILADELPHIA   PTCLDY    63  52  67 S7        29.88R
PITTSBURGH     CLOUDY    61  53  75 S5        29.82S
ROANOKE        MOCLDY    65  51  60 SE7       29.91S
RICHMOND       CLEAR     62  52  69 S6        29.90R
RALEIGH        PTCLDY    62  50  64 S3        29.91R

$$

ANZ530>537-240200-
MARINE OBSERVATIONS

STATION/POSITION TIME  TEMP    WIND        PRES
                       AIR SEA DIR/SP/G
                 (UTC) (F)     (DEG/KT/KT) (MB)
THOMAS PT LIGHT  0100   54 45  170/ 20/ 21   N/A
BALT KEY BRIDGE  0048   59     160/  8/  9 1011.3R
COVE POINT       0048   52     190/ 13/ 15 1012.8R
LEWISETTA        0048   61 47  180/  6/  7 1012.3S
SOLOMONS ISLAND  0048   55 46   90/  3/  4   N/A
PINEY POINT      0042          150/ 10/ 11   N/A

$$





USA.gov is the U.S. government's official web portal to all federal, state and local government web resources and services.